Hourly Weather Roundup
Issued by NWS Central Illinois

Home | Current Version | Previous Version | Text Only | Print | Product List | Glossary On
Versions: 1 2 3 4 5 6 7 8 9 10 11 12 13 14 15 16 17 18 19 20 21 22 23 24 25 26 27 28 29 30 31 32 33 34 35 36 37 38 39 40 41 42 43 44 45 46 47 48 49 50
000
NZUS43 KILX 262110
HWRILX

AREA WEATHER ROUNDUP
NATIONAL WEATHER SERVICE, LINCOLN IL
400 PM CDT THU MAY 26 2016


CITY           SKY/WX    TMP DP  RH WIND       PRES   REMARKS
BLOOMINGTON    MOSUNNY   85  71  62 S12       29.90F HX  90
CHAMPAIGN      CLOUDY    82  65  56 SW17      29.92S HX  84
DANVILLE       PTSUNNY   80  64  58 SW14      29.89F HX  81
DECATUR        PTSUNNY   81  68  64 S16G23    29.91F HX  84
EFFINGHAM      CLOUDY    73  68  84 SE3       29.95F
FLORA          CLOUDY    71  67  86 CALM      29.94S
GALESBURG      PTSUNNY   83  62  50 SW6       29.85F HX  83
JACKSONVILLE   SUNNY     84  67  56 S12       29.87F HX  87
LACON          SUNNY     84  63  49 S6        29.85F HX  85
LAWRENCEVILLE  CLOUDY    74  66  76 E8        29.95F
LITCHFIELD     CLOUDY    76  67  73 S15       29.93S
$$


CITY           SKY/WX    TMP DP  RH WIND       PRES   REMARKS
LINCOLN        SUNNY     84  68  58 S9G17     29.89S HX  87
MACOMB         MOSUNNY   83  66  56 S10       29.86F HX  85
MATTOON        CLOUDY    74  65  73 S7        29.94S
MT CARMEL AP   CLOUDY    72  63  73 E3        29.94F
OLNEY-NOBLE AP CLOUDY    70  64  83 CALM      29.93F
PARIS          CLOUDY    76  67  71 SW10      29.95S
PEORIA         SUNNY     85  65  51 S8        29.86F HX  86
PONTIAC        MOSUNNY   87  62  43 SW13      29.87F HX  87
RANTOUL        CLOUDY    82  67  61 SW14      29.91F HX  84
ROBINSON       CLOUDY    73  66  79 S6        29.96F
SPRINGFIELD    SUNNY     83  69  62 S12       29.88F HX  86
TAYLORVILLE    CLOUDY    78  68  71 S12       29.91F HX  80
$$

...REGIONAL REPORTS...


CITY           SKY/WX    TMP DP  RH WIND       PRES   REMARKS
CHICAGO O`HARE PTSUNNY   82  64  54 SW13G18   29.84F HX  83
KANKAKEE       MOSUNNY   83  65  54 SW9       29.88F HX  84
MOLINE         CLOUDY    87  64  46 NW7       29.81F HX  88
MOUNT STERLING CLOUDY    82  67  60 S10       29.83F HX  85
MOUNT VERNON   CLOUDY    66  63  88 W6        29.97R
PITTSFIELD     SUNNY     84  68  57 S9        29.87F HX  87
QUINCY         MOSUNNY   83  64  52 SE10      29.81F HX  84
ROCKFORD       CLOUDY    83  63  50 W8        29.86F HX  84
$$


CITY           SKY/WX    TMP DP  RH WIND       PRES   REMARKS
BURLINGTON     CLOUDY    82  66  58 S8        29.82F HX  84
CEDAR RAPIDS   PTSUNNY   80  64  58 CALM      29.81F HX  82
DES MOINES     CLOUDY    79  66  64 E7        29.79F HX  81
KIRKSVILLE     PTSUNNY   79  62  56 S13       29.78F HX  80
OTTUMWA        CLOUDY    82  66  58 SE7       29.79F HX  84
ST LOUIS       PTSUNNY   81  66  60 S12       29.93F HX  83
$$


CITY           SKY/WX    TMP DP  RH WIND       PRES   REMARKS
TERRE HAUTE    CLOUDY    77  64  64 S13       29.95S
EVANSVILLE     LGT RAIN  70  64  81 SW13      29.96F
INDIANAPOLIS   PTSUNNY   76  65  68 S13       29.95F
LAFAYETTE      MOSUNNY   79  61  53 SW8       29.91F HX  80
MADISON        PTSUNNY   83  54  36 W6        29.82F HX  82
MILWAUKEE      PTSUNNY   83  60  45 SW13      29.83F HX  83
$$





USA.gov is the U.S. government's official web portal to all federal, state and local government web resources and services.